• In Kazakhstan
  • List of Countries
  • For 7 days
  • Water Temperature
  • Weather Map
  • News
  • Weather Widgets
  • user-avatar
    Login

    Hourly Weather Plovdiv

    Today, 22 February, Saturday

    Time Temperature Precipitation Wind Pressure Humidity
    00:00 +4°C° 0.1 mm 2 mps 743 mmHg 82%
    01:00 +4°C° 0.1 mm 2 mps 743 mmHg 83%
    02:00 +4°C° 0 mm 2 mps 743 mmHg 84%
    03:00 +4°C° 0.2 mm 2 mps 743 mmHg 84%
    04:00 +4°C° 0.2 mm 2 mps 743 mmHg 84%
    05:00 +4°C° 0.2 mm 2 mps 743 mmHg 84%
    06:00 +3°C° 0 mm 2 mps 743 mmHg 83%
    07:00 +3°C° 0 mm 2 mps 744 mmHg 82%
    08:00 +3°C° 0 mm 2 mps 744 mmHg 82%
    09:00 +3°C° 0 mm 3 mps 745 mmHg 75%
    10:00 +5°C° 0 mm 3 mps 745 mmHg 69%
    11:00 +7°C° 0 mm 3 mps 745 mmHg 62%
    12:00 +7°C° 0 mm 3 mps 745 mmHg 60%
    13:00 +8°C° 0 mm 3 mps 745 mmHg 58%
    14:00 +8°C° 0 mm 3 mps 746 mmHg 57%
    15:00 +8°C° 0.1 mm 3 mps 746 mmHg 60%
    16:00 +7°C° 0.1 mm 3 mps 746 mmHg 64%
    17:00 +7°C° 0.1 mm 3 mps 746 mmHg 68%
    18:00 +6°C° 0.1 mm 2 mps 746 mmHg 72%
    19:00 +5°C° 0.1 mm 2 mps 747 mmHg 77%
    20:00 +5°C° 0.1 mm 1 mps 747 mmHg 81%
    21:00 +5°C° 0 mm 1 mps 747 mmHg 81%
    22:00 +4°C° 0 mm 1 mps 747 mmHg 82%
    23:00 +4°C° 0 mm 1 mps 747 mmHg 82%

    Tomorrow, 23 February, Sunday

    Time Temperature Precipitation Wind Pressure Humidity
    00:00 +4°C° 0 mm 1 mps 747 mmHg 82%
    01:00 +4°C° 0 mm 1 mps 747 mmHg 82%
    02:00 +3°C° 0 mm 1 mps 747 mmHg 82%
    03:00 +3°C° 0 mm 1 mps 747 mmHg 80%
    04:00 +2°C° 0 mm 2 mps 746 mmHg 79%
    05:00 +2°C° 0 mm 2 mps 746 mmHg 77%
    06:00 +3°C° 0 mm 2 mps 746 mmHg 73%
    07:00 +4°C° 0 mm 1 mps 746 mmHg 69%
    08:00 +4°C° 0 mm 1 mps 746 mmHg 65%
    09:00 +7°C° 0 mm 1 mps 746 mmHg 56%
    10:00 +9°C° 0 mm 1 mps 745 mmHg 47%
    11:00 +11°C° 0 mm 1 mps 745 mmHg 38%
    12:00 +13°C° 0 mm 1 mps 744 mmHg 37%
    13:00 +14°C° 0 mm 2 mps 744 mmHg 35%
    14:00 +15°C° 0 mm 2 mps 743 mmHg 34%
    15:00 +14°C° 0 mm 2 mps 743 mmHg 39%
    16:00 +14°C° 0 mm 1 mps 742 mmHg 44%
    17:00 +13°C° 0 mm 1 mps 742 mmHg 50%
    18:00 +12°C° 0 mm 1 mps 742 mmHg 52%
    19:00 +11°C° 0 mm 1 mps 742 mmHg 54%
    20:00 +9°C° 0 mm 2 mps 742 mmHg 56%
    21:00 +9°C° 0 mm 2 mps 741 mmHg 56%
    22:00 +9°C° 0 mm 2 mps 741 mmHg 57%
    23:00 +9°C° 0 mm 2 mps 740 mmHg 57%

    Day after tomorrow, 24 February, Monday

    Time Temperature Precipitation Wind Pressure Humidity
    00:00 +9°C° 0 mm 2 mps 740 mmHg 56%
    01:00 +8°C° 0 mm 2 mps 740 mmHg 56%
    02:00 +8°C° 0 mm 2 mps 739 mmHg 56%
    03:00 +8°C° 0 mm 2 mps 739 mmHg 55%
    04:00 +9°C° 0 mm 2 mps 738 mmHg 53%
    05:00 +9°C° 0 mm 2 mps 737 mmHg 52%
    06:00 +9°C° 0 mm 2 mps 737 mmHg 53%
    07:00 +10°C° 0 mm 2 mps 738 mmHg 54%
    08:00 +10°C° 0 mm 2 mps 738 mmHg 54%
    09:00 +13°C° 0 mm 2 mps 738 mmHg 50%
    10:00 +13°C° 0 mm 3 mps 739 mmHg 45%
    11:00 +15°C° 0 mm 4 mps 739 mmHg 40%
    12:00 +17°C° 0 mm 4 mps 739 mmHg 42%
    13:00 +16°C° 0 mm 5 mps 739 mmHg 45%
    14:00 +16°C° 0 mm 5 mps 739 mmHg 47%
    15:00 +16°C° 0 mm 5 mps 739 mmHg 49%
    16:00 +15°C° 0 mm 5 mps 739 mmHg 51%
    17:00 +14°C° 0 mm 5 mps 739 mmHg 53%
    18:00 +12°C° 0 mm 4 mps 739 mmHg 58%
    19:00 +10°C° 0 mm 3 mps 740 mmHg 62%
    20:00 +8°C° 0 mm 3 mps 741 mmHg 67%
    21:00 +8°C° 0 mm 2 mps 741 mmHg 69%
    22:00 +7°C° 0 mm 2 mps 742 mmHg 70%
    23:00 +7°C° 0 mm 1 mps 742 mmHg 72%

    25 February, Tuesday

    Time Temperature Precipitation Wind Pressure Humidity
    00:00 +7°C° 0 mm 1 mps 742 mmHg 70%
    01:00 +7°C° 0 mm 1 mps 742 mmHg 69%
    02:00 +7°C° 0 mm 1 mps 742 mmHg 68%
    03:00 +6°C° 0 mm 1 mps 742 mmHg 67%
    04:00 +6°C° 0 mm 1 mps 742 mmHg 66%
    05:00 +6°C° 0 mm 1 mps 741 mmHg 65%
    06:00 +6°C° 0 mm 1 mps 741 mmHg 66%
    07:00 +7°C° 0 mm 1 mps 741 mmHg 67%
    08:00 +7°C° 0 mm 1 mps 741 mmHg 68%
    09:00 +9°C° 0 mm 1 mps 741 mmHg 62%
    10:00 +11°C° 0 mm 1 mps 741 mmHg 57%
    11:00 +13°C° 0 mm 1 mps 740 mmHg 51%
    12:00 +14°C° 0 mm 2 mps 740 mmHg 51%
    13:00 +14°C° 0 mm 2 mps 739 mmHg 50%
    14:00 +15°C° 0 mm 2 mps 738 mmHg 50%
    15:00 +15°C° 0 mm 2 mps 738 mmHg 54%
    16:00 +14°C° 0 mm 1 mps 737 mmHg 57%
    17:00 +14°C° 0 mm 1 mps 736 mmHg 60%
    18:00 +12°C° 0 mm 1 mps 736 mmHg 64%
    19:00 +11°C° 0 mm 1 mps 736 mmHg 68%
    20:00 +10°C° 0 mm 1 mps 736 mmHg 72%
    21:00 +10°C° 0 mm 1 mps 735 mmHg 72%
    22:00 +9°C° 0 mm 1 mps 735 mmHg 73%
    23:00 +9°C° 0 mm 1 mps 734 mmHg 73%

    26 February, Wednesday

    Time Temperature Precipitation Wind Pressure Humidity
    00:00 +9°C° 0 mm 1 mps 734 mmHg 73%
    01:00 +8°C° 0 mm 2 mps 733 mmHg 74%
    02:00 +8°C° 0 mm 2 mps 733 mmHg 75%
    03:00 +8°C° 0 mm 2 mps 733 mmHg 75%
    04:00 +8°C° 0 mm 2 mps 732 mmHg 76%
    05:00 +9°C° 0 mm 1 mps 732 mmHg 76%
    06:00 +9°C° 0 mm 1 mps 731 mmHg 76%
    07:00 +9°C° 0 mm 1 mps 731 mmHg 75%
    08:00 +9°C° 0 mm 1 mps 731 mmHg 75%
    09:00 +11°C° 0 mm 1 mps 731 mmHg 68%
    10:00 +13°C° 0 mm 1 mps 730 mmHg 61%
    11:00 +15°C° 0 mm 1 mps 730 mmHg 54%
    12:00 +16°C° 0 mm 2 mps 729 mmHg 51%
    13:00 +16°C° 0 mm 2 mps 729 mmHg 49%
    14:00 +17°C° 0 mm 2 mps 728 mmHg 46%
    15:00 +16°C° 0 mm 2 mps 727 mmHg 50%
    16:00 +16°C° 0 mm 2 mps 727 mmHg 53%
    17:00 +15°C° 0 mm 1 mps 727 mmHg 57%
    18:00 +14°C° 0 mm 2 mps 727 mmHg 61%
    19:00 +13°C° 0 mm 2 mps 727 mmHg 65%
    20:00 +12°C° 0 mm 2 mps 727 mmHg 69%
    21:00 +10°C° 0 mm 2 mps 727 mmHg 72%
    22:00 +10°C° 0 mm 2 mps 727 mmHg 74%
    23:00 +9°C° 0 mm 2 mps 727 mmHg 76%

    27 February, Thursday

    Time Temperature Precipitation Wind Pressure Humidity
    00:00 +9°C° 0 mm 2 mps 727 mmHg 78%
    01:00 +9°C° 0 mm 2 mps 727 mmHg 80%
    02:00 +8°C° 0 mm 2 mps 727 mmHg 81%
    03:00 +8°C° 0 mm 2 mps 727 mmHg 82%
    04:00 +8°C° 0 mm 2 mps 727 mmHg 82%
    05:00 +9°C° 0 mm 1 mps 726 mmHg 82%
    06:00 +9°C° 0 mm 1 mps 726 mmHg 81%
    07:00 +9°C° 0 mm 1 mps 726 mmHg 81%
    08:00 +9°C° 0 mm 1 mps 726 mmHg 80%
    09:00 +10°C° 0 mm 2 mps 726 mmHg 74%
    10:00 +12°C° 0 mm 2 mps 725 mmHg 67%
    11:00 +14°C° 0 mm 2 mps 725 mmHg 60%
    12:00 +15°C° 0.2 mm 2 mps 724 mmHg 58%
    13:00 +14°C° 0.2 mm 3 mps 724 mmHg 56%
    14:00 +16°C° 0.2 mm 3 mps 723 mmHg 53%
    15:00 +14°C° 0.6 mm 3 mps 723 mmHg 57%
    16:00 +14°C° 0.6 mm 2 mps 723 mmHg 61%
    17:00 +13°C° 0.6 mm 2 mps 722 mmHg 65%
    18:00 +12°C° 0.1 mm 2 mps 723 mmHg 69%
    19:00 +10°C° 0.1 mm 2 mps 723 mmHg 73%
    20:00 +9°C° 0.1 mm 2 mps 723 mmHg 77%
    21:00 +8°C° 0.5 mm 2 mps 724 mmHg 79%
    22:00 +8°C° 0.5 mm 3 mps 724 mmHg 81%
    23:00 +7°C° 0.5 mm 3 mps 725 mmHg 82%
    Show more